Hourly Weather Roundup
Issued by NWS Central Illinois

Home | Current Version | Previous Version | Text Only | Print | Product List | Glossary On
Versions: 1 2 3 4 5 6 7 8 9 10 11 12 13 14 15 16 17 18 19 20 21 22 23 24 25 26 27 28 29 30 31 32 33 34 35 36 37 38 39 40 41 42 43 44 45 46 47 48 49 50
000
NZUS43 KILX 240110
HWRILX

AREA WEATHER ROUNDUP
NATIONAL WEATHER SERVICE, LINCOLN IL
700 PM CST TUE DEC 23 2014


CITY           SKY/WX    TMP DP  RH WIND       PRES   REMARKS
BLOOMINGTON    FAIR      40  39  96 CALM      29.75S
CHAMPAIGN      CLOUDY    43  40  89 E3        29.75S
DECATUR        CLOUDY    42  41  96 CALM      29.74F
FLORA          LGT RAIN  46  43  90 N6        29.74F
GALESBURG      CLOUDY    39  35  87 CALM      29.76R
JACKSONVILLE   FAIR      41  37  84 CALM      29.76R
LACON          FAIR      34  32  93 CALM      29.75R
LAWRENCEVILLE  CLOUDY    48  41  76 N7        29.73R
LITCHFIELD     CLOUDY    42  40  91 SE3       29.75R
$$


CITY           SKY/WX    TMP DP  RH WIND       PRES   REMARKS
LINCOLN        FAIR      42  40  91 CALM      29.75R
MACOMB         CLOUDY    36  35  96 W5        29.78R WCI  32
MATTOON        CLOUDY    44  41  89 SE5       29.74R
MT CARMEL AP   LGT RAIN  50  41  71 N7        29.72S
OLNEY-NOBLE AP CLOUDY    45  43  93 N6        29.74R
PARIS          RAIN      46  42  85 CALM      29.76R
PEORIA         FAIR      39  33  79 CALM      29.76R
PONTIAC        MOCLDY    40  39  95 S5        29.76R
RANTOUL        CLOUDY    44  42  94 CALM      29.75F
ROBINSON       LGT RAIN  46  42  86 NW7       29.74S
SPRINGFIELD    FAIR      43  38  82 CALM      29.76R
TAYLORVILLE    CLOUDY    43  41  93 CALM      29.75R
$$

...REGIONAL REPORTS...


CITY           SKY/WX    TMP DP  RH WIND       PRES   REMARKS
CHICAGO O`HARE MOCLDY    40  36  86 S6        29.74R
KANKAKEE       CLOUDY    41  40  93 SE3       29.77R
MOLINE         CLOUDY    40  33  76 SW8       29.75R WCI  34
MOUNT VERNON   CLOUDY    46  39  76 N5        29.74S
PITTSFIELD     FAIR      38  34  85 W3        29.76F
QUINCY         FAIR      38  32  79 CALM      29.76R
ROCKFORD       CLOUDY    40  31  70 SW3       29.75R
$$


CITY           SKY/WX    TMP DP  RH WIND       PRES   REMARKS
BURLINGTON     CLOUDY    40  35  83 CALM      29.76R
CEDAR RAPIDS   CLOUDY    35  35 100 W6        29.72S WCI  30
DES MOINES     LGT SNOW  34  32  92 NW8       29.78R FOG     WCI  27
KIRKSVILLE     CLOUDY    38  33  82 SW3       29.78R
OTTUMWA        CLOUDY    37  36  96 NW9       29.74S WCI  30
ST LOUIS       FAIR      45  38  76 NW5       29.75S
$$


CITY           SKY/WX    TMP DP  RH WIND       PRES   REMARKS
TERRE HAUTE    CLOUDY    48  40  73 NW6       29.74R
EVANSVILLE     CLOUDY    50  44  80 N8        29.70S
INDIANAPOLIS   CLOUDY    49  44  83 NE12      29.71F
LAFAYETTE      LGT RAIN  45  39  79 N5        29.76R
MADISON        LGT RAIN  38  37  97 S7        29.71S FOG     WCI  33
MILWAUKEE      MOCLDY    42  33  70 SW3       29.74R
$$





USA.gov is the U.S. government's official web portal to all federal, state and local government web resources and services.